Regional Weather Roundup
Issued by NWS Burlington, VT

Home | Current Version | Previous Version | Text Only | Print | Product List | Glossary On
Versions: 1 2 3 4 5 6 7 8 9 10 11 12 13 14 15 16 17 18 19 20 21 22 23 24 25 26 27 28 29 30 31 32 33 34 35 36 37 38 39 40 41 42 43 44 45 46 47 48 49 50
000
ASUS41 KBTV 052030
RWRBTV
VERMONT REGIONAL WEATHER ROUNDUP
NATIONAL WEATHER SERVICE BURLINGTON VT
300 PM EST MON DEC 05 2016

NOTE: "FAIR" INDICATES FEW OR NO CLOUDS BELOW 12,000 FEET WITH NO
SIGNIFICANT WEATHER AND/OR OBSTRUCTIONS TO VISIBILITY.

* THESE REPORTS ARE NOT UNDER NWS QUALITY CONTROL AND/OR DO NOT
  REPORT WEATHER SUCH AS PRECIPITATION AND FOG.

VTZ001>019-052100-
_____VERMONT_____


CITY           SKY/WX    TMP DP  RH WIND       PRES   REMARKS
BURLINGTON     CLOUDY    35  31  85 SW10      29.86R WCI  27
MONTPELIER     CLOUDY    29  26  89 S5        29.87R WCI  24
MORRISVILLE    LGT SNOW  29  25  85 S7        29.85R FOG     WCI  22
ST. JOHNSBURY*   N/A     31  27  85 MISG      29.84S
LYNDONVILLE*   LGT SNOW  28  27  96 SE5       29.85R WCI  23
MIDDLEBURY*    CLOUDY    35  33  89 CALM      29.88R
RUTLAND*       CLOUDY    37  31  78 VRB5      29.88R
SPRINGFIELD    CLOUDY    30  26  85 CALM      29.90R
HIGHGATE*      LGT SNOW  32  31  96 SW5       29.86R WCI  28
NEWPORT*       LGT SNOW  28  26  93 S3        29.84R
BENNINGTON     CLOUDY    39  31  72 W9        29.91R
SUTTON*          N/A     27 N/A N/A MISG        N/A
ISLAND POND*     N/A     27 N/A N/A CALM        N/A
GALLUP MILLS*    N/A     27 N/A N/A MISG        N/A
UNION VILLAGE*   N/A     30 N/A N/A MISG        N/A
MT. MANSFIELD*   N/A     23 N/A N/A W29G44      N/A  WCI   6

_____LAKE CHAMPLAIN_____


CITY           SKY/WX    TMP DP  RH WIND       PRES   REMARKS
BURTON ISLAND*   N/A     36  34  93 S17         N/A  WCI  25
COLCHESTER RF*   N/A     36  32  87 SW22        N/A  WCI  24
DIAMOND ISL*     N/A     36  32  87 S8          N/A  WCI  29

$$

NYZ007-026>031-035-052-083-087-052100-
_____NORTHERN NEW YORK_____


CITY           SKY/WX    TMP DP  RH WIND       PRES   REMARKS
PLATTSBURGH    CLOUDY    34  29  82 SW3       29.85R
SARANAC LAKE   LGT SNOW  31  27  85 VRB7      29.82R FOG     WCI  24
MASSENA        CLOUDY    33  28  81 W12       29.92R WCI  24
OGDENSBURG*    CLOUDY    36  30  80 W3        29.92R
POTSDAM*       CLOUDY    34  34 100 W10       29.91R WCI  26
WATERTOWN      CLOUDY    40  31  70 W15G28    29.93R WCI  32
FT DRUM        CLOUDY    36  32  87 W5        29.91R WCI  32
ALBANY         CLOUDY    42  32  67 W8        29.94R
GLENS FALLS    PTSUNNY   38  31  76 S8        29.90R

$$
NHZ002-005-011-052100-
_____NEW HAMPSHIRE_____


CITY           SKY/WX    TMP DP  RH WIND       PRES   REMARKS
LEBANON        CLOUDY    32  29  88 CALM      29.89R
KEENE          CLOUDY    34  30  86 S3        29.92R
MT WASHINGTON  SNOW      14  14 100 W38         N/A  VSB 0   WCI  -9
PLYMOUTH       LGT SNOW  29  27  94 CALM      29.91R
WHITEFIELD     LGT SNOW  29  25  85 CALM      29.85R FOG

$$

_____REGIONAL QUEBEC LOCATIONS_____


CITY           SKY/WX    TMP DP  RH WIND       PRES   REMARKS
MONTREAL       LGT SNOW  27  23  86 N9        29.89R VSB 1   WCI  17
QUEBEC CITY    LGT SNOW  25  23  93 NE10      29.90F WCI  15
SHERBROOKE     LGT SNOW  27  25  93 NE3       29.82S VSB 1

_____REGIONAL ONTARIO LOCATIONS_____


CITY           SKY/WX    TMP DP  RH WIND       PRES   REMARKS
OTTAWA         PTSUNNY   27  23  86 NW6       29.89R WCI  20

______KEY______
VSB  - VISIBILITY IN MILES
WCI  - WIND CHILL INDEX
HX   - HEAT INDEX
$$
NNNN




USA.gov is the U.S. government's official web portal to all federal, state and local government web resources and services.